[[{"header":{"parameterUnit":"m.s-1","parameterCategory":1,"la1":30.2991,"la2":30.254,"lo1":-89.0895,"lo2":-89.0444,"dy":0.0017,"dx":0.0017,"nx":28,"ny":28,"refTime":"2025-04-08T21:00:00:Z","depth":0,"parameterNumber":2,"parameterNumberName":"U-component_of_WINDS"},"data":[0,0,0,0,0,0,0,0,0,0,0,0,0,0,0,0,0,0,0,0,0,0,0,0,0,0,0,0,0,0,0,0,0,0,0,0,0,0,0,0,0,0,0,0,0,0,0,0,0,0,0,0,0,0,0,0,0,0,-1.8187,-1.8187,0,-1.82,-1.82,-1.82,-1.8153,-1.8152,-1.815,-1.8149,-1.8164,-1.8166,-1.8167,0,0,0,0,0,0,0,0,0,0,0,0,0,-1.8122,-1.8123,-1.8187,-1.8187,-1.8187,-1.82,-1.82,-1.82,-1.8153,-1.8152,-1.815,-1.8148,-1.8163,-1.8165,-1.8168,0,0,0,0,0,0,0,0,0,0,0,0,0,-1.8144,-1.8124,-1.8187,-1.8165,-1.8163,-1.82,-1.82,-1.8201,-1.8154,-1.8152,-1.815,-1.8148,-1.8163,-1.8165,-1.8168,-1.8226,0,0,-1.8176,-1.8177,0,0,0,0,0,0,0,0,-1.8143,-1.8147,-1.8168,-1.8167,-1.8165,-1.8173,-1.8183,-1.8209,-1.8154,-1.8158,-1.8149,-1.8147,-1.8169,-1.8171,-1.8178,-1.8227,-1.8228,-1.8176,-1.8178,-1.8179,-1.8179,0,0,0,0,0,0,0,-1.8142,-1.8146,-1.8192,-1.8169,-1.8167,-1.8155,-1.8156,-1.8188,-1.8175,-1.8157,-1.8154,-1.8156,-1.8167,-1.8176,-1.8178,-1.8228,-1.8176,-1.8178,-1.818,-1.8181,-1.8326,-1.8328,0,0,0,0,0,0,-1.8143,-1.8145,-1.8192,-1.8192,-1.8148,-1.8158,-1.8159,-1.8172,-1.8174,-1.8173,-1.8158,-1.8154,-1.8172,-1.8175,-1.8178,-1.8247,-1.8179,-1.8181,-1.8182,-1.8323,-1.8326,-1.8329,0,0,0,0,0,0,-1.8141,-1.8147,-1.8191,-1.8168,-1.8172,-1.8162,-1.8177,-1.8174,-1.8182,-1.8175,-1.8172,-1.8168,-1.8171,-1.8175,-1.8215,-1.8247,-1.8182,-1.8185,-1.8321,-1.8324,-1.8327,-1.8384,0,0,0,0,0,0,-1.814,-1.8147,-1.8169,-1.8169,-1.8174,-1.8227,-1.8179,-1.8176,-1.8186,-1.8181,-1.8184,-1.8183,-1.8169,-1.8211,-1.8217,-1.8249,-1.8187,-1.8318,-1.8322,-1.8326,-1.8379,-1.8389,-1.8398,0,0,0,0,0,-1.8138,-1.8185,-1.817,-1.8176,-1.8201,-1.8229,-1.8232,-1.8215,-1.8189,-1.8211,-1.8207,-1.8182,-1.8242,-1.8215,-1.8222,-1.8255,-1.8316,-1.8321,-1.8326,-1.8375,-1.8387,-1.8397,0,0,0,0,0,0,-1.8189,-1.8184,-1.8168,-1.8216,-1.8224,-1.8221,-1.8248,-1.8228,-1.8243,-1.8238,-1.8217,-1.8218,-1.8262,-1.8262,-1.8233,-1.8312,-1.8274,-1.8281,-1.831,-1.8321,-1.833,-1.8329,-1.8189,0,0,0,0,0,-1.8206,-1.8229,-1.8224,-1.8267,-1.8271,-1.8259,-1.8271,-1.8257,-1.8264,-1.8267,-1.8265,-1.8273,-1.8293,-1.8307,-1.8326,-1.8379,-1.8379,-1.8405,-1.8414,-1.8422,-1.8428,-1.8456,-1.8468,-1.8346,-1.8346,-1.8345,0,0,-1.8242,-1.8242,-1.8258,-1.8277,-1.8281,-1.8306,-1.8262,-1.829,-1.8308,-1.8271,-1.8308,-1.8308,-1.8315,-1.8362,-1.8383,-1.8364,-1.8462,-1.8428,-1.8434,-1.8436,-1.8463,-1.8474,-1.8485,-1.8349,-1.8348,-1.8348,0,0,-1.8319,-1.8321,-1.8357,-1.8362,-1.8368,-1.836,-1.8369,-1.8369,-1.8367,-1.8404,-1.8377,-1.8399,-1.8434,-1.8441,-1.8448,-1.8528,-1.8507,-1.8535,-1.8582,-1.861,-1.862,-1.8628,-1.8656,-1.8667,-1.8541,-1.8541,-1.8541,0,-1.8362,-1.8397,-1.8378,-1.8408,-1.8418,-1.8385,-1.8422,-1.8427,-1.844,-1.8447,-1.8426,-1.847,-1.8472,-1.852,-1.854,-1.8547,-1.8557,-1.8534,-1.862,-1.8628,-1.8636,-1.8662,-1.8673,-1.8544,-1.8544,-1.8544,-1.8543,0,-1.845,-1.8475,-1.8504,-1.8516,-1.8529,-1.8562,-1.8548,-1.8564,-1.8549,-1.8543,-1.8582,-1.8584,-1.8602,-1.8613,-1.8599,-1.8659,-1.8647,-1.8623,-1.8585,-1.8651,-1.8676,-1.8686,-1.8549,-1.8548,-1.8547,-1.8546,0,0,-1.856,-1.8561,-1.8572,-1.8577,-1.8582,-1.8601,-1.8633,-1.865,-1.8664,-1.8673,-1.87,-1.8731,-1.8708,-1.8717,-1.8704,-1.8729,-1.8792,-1.8702,-1.8702,-1.8718,-1.8858,-1.8875,-1.8888,-1.8778,-1.8779,-1.8781,-1.8857,0,-1.8635,-1.8689,-1.8673,-1.8727,-1.875,-1.872,-1.8748,-1.8754,-1.8749,-1.8768,-1.8764,-1.8786,-1.8755,-1.876,-1.8783,-1.8779,-1.8819,-1.8774,-1.8802,-1.8803,-1.8801,-1.8901,-1.8919,-1.8991,-1.8867,-1.8868,-1.8869,0,-1.873,-1.8743,-1.88,-1.8801,-1.881,-1.8835,-1.8849,-1.8868,-1.8875,-1.887,-1.888,-1.8862,-1.8893,-1.8855,-1.8898,-1.8868,-1.8878,-1.8878,-1.8881,-1.8882,-1.884,-1.8905,-1.9014,-1.9024,-1.8885,-1.8883,-1.8882,0,-1.8804,-1.8836,-1.8874,-1.8879,-1.8881,-1.89,-1.8901,-1.8906,-1.8917,-1.893,-1.8938,-1.8954,-1.8964,-1.8977,-1.8964,-1.8938,-1.901,-1.8971,-1.9006,-1.9007,-1.9023,-1.9022,-1.9134,-1.903,-1.903,-1.903,-1.903,0,-1.889,-1.8926,-1.8907,-1.893,-1.897,-1.8951,-1.899,-1.8989,-1.8993,-1.9016,-1.8991,-1.9013,-1.8994,-1.9015,-1.9005,-1.9042,-1.9047,-1.9044,-1.9041,-1.9046,-1.9046,-1.9052,-1.9047,-1.9033,-1.9032,-1.9032,-1.9031,0,-1.8979,-1.8968,-1.9007,-1.9006,-1.9006,-1.9035,-1.9034,-1.9056,-1.905,-1.9079,-1.9085,-1.9075,-1.9098,-1.9086,-1.911,-1.9103,-1.9151,-1.9142,-1.9149,-1.9146,-1.9183,-1.9179,-1.9303,-1.9318,-1.9205,-1.9206,-1.9207,0,-1.9034,-1.9061,-1.9062,-1.9076,-1.9079,-1.9101,-1.9112,-1.9095,-1.9108,-1.9118,-1.9138,-1.9159,-1.9174,-1.9212,-1.9208,-1.9226,-1.9216,-1.9258,-1.9219,-1.9223,-1.9216,-1.9215,-1.9217,-1.9266,-1.9267,-1.9268,-1.9269,0,-1.9133,-1.9126,-1.9144,-1.916,-1.9174,-1.9186,-1.9195,-1.9208,-1.9191,-1.9207,-1.923,-1.9242,-1.9266,-1.9286,-1.9302,-1.9304,-1.9284,-1.9282,-1.9291,-1.9296,-1.9299,-1.9298,-1.917,-1.9279,-1.9278,-1.9277,-1.9277,-1.9276,-1.9207,-1.9229,-1.9233,-1.9254,-1.9259,-1.9269,-1.9289,-1.9285,-1.9304,-1.9322,-1.9311,-1.9337,-1.9343,-1.9362,-1.9367,-1.9388,-1.9371,-1.9385,-1.9388,-1.9391,-1.9396,-1.9296,-1.9391,-1.9391,-1.939,-1.939,-1.939,0,-1.9304,-1.9305,-1.9324,-1.9338,-1.9354,-1.9334,-1.9344,-1.9358,-1.9382,-1.9389,-1.9405,-1.9431,-1.9451,-1.9448,-1.9467,-1.9484,-1.9475,-1.9489,-1.9487,-1.9488,-1.941,-1.94,-1.9496,-1.9496,-1.9496,-1.9496,-1.9496,-1.9496,-1.9356,-1.9393,-1.9387,-1.9426,-1.9427,-1.9453,-1.946,-1.9469,-1.9474,-1.9505,-1.9521,-1.9519,-1.9522,-1.954,-1.9558,-1.9557,-1.9564,-1.9582,-1.9577,-1.9504,-1.9494,-1.9484,-1.9474,-1.9584,-1.9584,-1.9653,-1.9654,-1.9655]},{"header":{"parameterUnit":"m.s-1","parameterCategory":1,"la1":30.2991,"la2":30.254,"lo1":-89.0895,"lo2":-89.0444,"dy":0.0017,"dx":0.0017,"nx":28,"ny":28,"refTime":"2025-04-08T21:00:00:Z","depth":0,"parameterNumber":3,"parameterNumberName":"V-component_of_WINDS"},"data":[0,0,0,0,0,0,0,0,0,0,0,0,0,0,0,0,0,0,0,0,0,0,0,0,0,0,0,0,0,0,0,0,0,0,0,0,0,0,0,0,0,0,0,0,0,0,0,0,0,0,0,0,0,0,0,0,0,0,-1.4671,-1.4671,0,-1.4679,-1.4679,-1.4679,-1.4639,-1.4638,-1.4637,-1.4636,-1.4644,-1.4645,-1.4646,0,0,0,0,0,0,0,0,0,0,0,0,0,-1.462,-1.4621,-1.4671,-1.4671,-1.4671,-1.4679,-1.4679,-1.4679,-1.464,-1.4638,-1.4637,-1.4635,-1.4643,-1.4645,-1.4646,0,0,0,0,0,0,0,0,0,0,0,0,0,-1.4636,-1.4621,-1.4671,-1.4652,-1.4651,-1.4679,-1.4679,-1.4679,-1.464,-1.4638,-1.4636,-1.4635,-1.4643,-1.4645,-1.4647,-1.4693,0,0,-1.4652,-1.4653,0,0,0,0,0,0,0,0,-1.4635,-1.4638,-1.4655,-1.4653,-1.4652,-1.4656,-1.4664,-1.4684,-1.464,-1.4644,-1.4636,-1.4634,-1.4649,-1.4651,-1.4656,-1.4693,-1.4693,-1.4653,-1.4654,-1.4655,-1.4655,0,0,0,0,0,0,0,-1.4634,-1.4638,-1.4674,-1.4655,-1.4653,-1.4643,-1.4644,-1.4667,-1.4656,-1.4643,-1.4641,-1.4642,-1.4648,-1.4654,-1.4656,-1.4694,-1.4653,-1.4654,-1.4655,-1.4656,-1.4769,-1.4771,0,0,0,0,0,0,-1.4636,-1.4637,-1.4674,-1.4674,-1.4639,-1.4645,-1.4646,-1.4657,-1.4656,-1.4654,-1.4644,-1.464,-1.4652,-1.4654,-1.4656,-1.471,-1.4655,-1.4656,-1.4657,-1.4767,-1.477,-1.4772,0,0,0,0,0,0,-1.4635,-1.4639,-1.4673,-1.4655,-1.4658,-1.4648,-1.466,-1.4658,-1.4664,-1.4656,-1.4654,-1.4652,-1.465,-1.4653,-1.4684,-1.471,-1.4657,-1.4659,-1.4765,-1.4768,-1.4771,-1.4819,0,0,0,0,0,0,-1.4634,-1.4639,-1.4657,-1.4655,-1.4659,-1.4702,-1.4662,-1.4659,-1.4667,-1.4663,-1.4663,-1.4661,-1.4649,-1.4681,-1.4686,-1.4712,-1.466,-1.4763,-1.4766,-1.477,-1.4815,-1.4823,-1.483,0,0,0,0,0,-1.4632,-1.467,-1.4658,-1.4663,-1.4681,-1.4703,-1.4705,-1.4691,-1.4669,-1.4687,-1.4682,-1.4661,-1.4706,-1.4685,-1.469,-1.4716,-1.4761,-1.4765,-1.4769,-1.4812,-1.4822,-1.483,0,0,0,0,0,0,-1.4675,-1.467,-1.4656,-1.4695,-1.47,-1.4697,-1.4718,-1.4702,-1.4713,-1.4708,-1.4689,-1.469,-1.4724,-1.4723,-1.4699,-1.4761,-1.473,-1.4735,-1.4761,-1.477,-1.4777,-1.4777,-1.4662,0,0,0,0,0,-1.4689,-1.4708,-1.4702,-1.4737,-1.474,-1.4729,-1.4738,-1.4726,-1.473,-1.4732,-1.4729,-1.4734,-1.4749,-1.4759,-1.4772,-1.4815,-1.4814,-1.4835,-1.4843,-1.4849,-1.4854,-1.4877,-1.4886,-1.4785,-1.4785,-1.4785,0,0,-1.4718,-1.4718,-1.4731,-1.4745,-1.4748,-1.4767,-1.4731,-1.4753,-1.4767,-1.4735,-1.4764,-1.4762,-1.4766,-1.4803,-1.4819,-1.4803,-1.4882,-1.4854,-1.4859,-1.4861,-1.4882,-1.4892,-1.49,-1.4788,-1.4788,-1.4787,0,0,-1.4782,-1.4783,-1.4813,-1.4816,-1.482,-1.4812,-1.4819,-1.4818,-1.4816,-1.4844,-1.4821,-1.4837,-1.4864,-1.4867,-1.4873,-1.4937,-1.4919,-1.4942,-1.4981,-1.5004,-1.5012,-1.5019,-1.5042,-1.5051,-1.4947,-1.4947,-1.4947,0,-1.4818,-1.4846,-1.483,-1.4854,-1.4861,-1.4833,-1.4863,-1.4866,-1.4874,-1.488,-1.4862,-1.4894,-1.4895,-1.4932,-1.4948,-1.4953,-1.4961,-1.4942,-1.5012,-1.5019,-1.5025,-1.5047,-1.5056,-1.495,-1.4949,-1.4949,-1.4949,0,-1.4891,-1.4911,-1.4934,-1.4943,-1.4953,-1.4979,-1.4966,-1.4978,-1.4965,-1.4959,-1.4989,-1.4989,-1.5002,-1.5009,-1.4997,-1.5045,-1.5036,-1.5015,-1.4984,-1.5038,-1.5058,-1.5067,-1.4954,-1.4953,-1.4952,-1.4951,0,0,-1.4982,-1.4982,-1.499,-1.4994,-1.4996,-1.5011,-1.5036,-1.5049,-1.506,-1.5066,-1.5087,-1.511,-1.5091,-1.5097,-1.5084,-1.5104,-1.5156,-1.5081,-1.5081,-1.5096,-1.5209,-1.5226,-1.5236,-1.5143,-1.5145,-1.5146,-1.5209,0,-1.5045,-1.5089,-1.5074,-1.5118,-1.5137,-1.511,-1.5132,-1.5135,-1.513,-1.5145,-1.5139,-1.5156,-1.5129,-1.5133,-1.5151,-1.5146,-1.5178,-1.5141,-1.5163,-1.5164,-1.5164,-1.5246,-1.5264,-1.5324,-1.5217,-1.5219,-1.5219,0,-1.5124,-1.5134,-1.518,-1.5179,-1.5187,-1.5207,-1.5217,-1.5231,-1.5235,-1.523,-1.5237,-1.522,-1.5244,-1.5212,-1.5245,-1.522,-1.5228,-1.5227,-1.5229,-1.5231,-1.5196,-1.5252,-1.5342,-1.5352,-1.5232,-1.5231,-1.523,0,-1.5188,-1.5212,-1.5243,-1.5247,-1.5246,-1.5261,-1.5262,-1.5263,-1.5272,-1.5281,-1.5286,-1.5298,-1.5305,-1.5314,-1.5301,-1.5279,-1.5336,-1.5303,-1.5333,-1.5334,-1.5347,-1.5347,-1.5441,-1.5351,-1.5351,-1.5351,-1.535,0,-1.526,-1.5289,-1.5272,-1.5291,-1.5323,-1.5305,-1.5338,-1.5335,-1.5336,-1.5354,-1.5331,-1.5349,-1.533,-1.5346,-1.5335,-1.5365,-1.5368,-1.5364,-1.5362,-1.5367,-1.5368,-1.5373,-1.5369,-1.5353,-1.5353,-1.5352,-1.5352,0,-1.5337,-1.5326,-1.5358,-1.5355,-1.5354,-1.5378,-1.5375,-1.5393,-1.5386,-1.5409,-1.5413,-1.5402,-1.5419,-1.5407,-1.5424,-1.5417,-1.5456,-1.5447,-1.5455,-1.5453,-1.5484,-1.5482,-1.5586,-1.5599,-1.55,-1.5501,-1.5501,0,-1.5384,-1.5406,-1.5405,-1.5416,-1.5418,-1.5435,-1.5444,-1.5427,-1.5437,-1.5443,-1.5459,-1.5474,-1.5486,-1.5514,-1.5508,-1.552,-1.5512,-1.5547,-1.5513,-1.5518,-1.5513,-1.5513,-1.5515,-1.5555,-1.5556,-1.5557,-1.5557,0,-1.5469,-1.5463,-1.5477,-1.5489,-1.55,-1.5508,-1.5515,-1.5525,-1.5508,-1.552,-1.5538,-1.5546,-1.5563,-1.5579,-1.5589,-1.5589,-1.5571,-1.5568,-1.5576,-1.5582,-1.5587,-1.5586,-1.5475,-1.5566,-1.5565,-1.5564,-1.5564,-1.5564,-1.5533,-1.5552,-1.5554,-1.5571,-1.5574,-1.558,-1.5597,-1.5592,-1.5606,-1.5619,-1.5608,-1.5629,-1.5631,-1.5643,-1.5645,-1.5661,-1.5647,-1.5658,-1.5661,-1.5664,-1.5669,-1.5583,-1.5663,-1.5663,-1.5662,-1.5662,-1.5662,0,-1.5618,-1.5619,-1.5634,-1.5644,-1.5656,-1.5638,-1.5644,-1.5656,-1.5674,-1.5678,-1.569,-1.571,-1.5724,-1.5719,-1.5732,-1.5746,-1.5738,-1.575,-1.5749,-1.5749,-1.5681,-1.5673,-1.5756,-1.5756,-1.5756,-1.5756,-1.5756,-1.5756,-1.5664,-1.5695,-1.5689,-1.572,-1.572,-1.5741,-1.5746,-1.5752,-1.5755,-1.5778,-1.5791,-1.5787,-1.5787,-1.58,-1.5812,-1.581,-1.5816,-1.5832,-1.5827,-1.5763,-1.5754,-1.5745,-1.5738,-1.5833,-1.5833,-1.5894,-1.5895,-1.5895]}]]